Lid_Strength_Index
2 1 1 0 0 1 0 1 1 1 1 1 2 2 2 2 2 4 5 5 6 9 9 8 7 9 8 8 10 9 9 8 8 11 12 12 13 12 13 11 12 14 15 15 14 16 17 8 8 12 9 7 7 7
1 1 1 1 0 0 0 0 1 1 1 1 2 2 2 2 2 4 7 5 3 7 9 6 5 5 5 5 7 7 9 8 7 10 9 10 12 11 12 15 9 14 12 13 12 12 8 7 8 6 6 7 7 7
2 1 1 1 -0 0 0 0 1 1 1 1 2 2 2 2 2 3 6 5 5 7 8 8 8 5 4 4 4 8 6 6 7 5 8 10 13 10 13 13 12 10 8 12 12 9 9 7 6 6 6 7 6 5
2 2 1 2 -1 -1 0 0 1 1 1 1 2 2 2 2 2 3 5 4 5 7 10 10 5 6 4 4 4 3 5 4 4 5 8 10 11 8 11 11 12 10 9 11 11 9 8 8 6 6 7 8 8 9
1 1 1 1 -0 -0 -0 -0 0 0 1 2 2 2 2 2 2 3 5 5 4 7 11 10 7 5 4 4 4 4 5 6 7 9 9 11 8 9 8 9 11 8 11 13 12 9 8 10 8 7 8 9 9 10
1 1 1 1 -0 -0 -0 -0 -0 0 1 1 2 2 2 2 2 4 8 4 4 5 9 12 7 6 4 4 5 6 6 6 7 8 9 7 6 8 11 12 8 8 9 9 11 9 10 9 9 9 10 11 11 12
0 1 1 1 0 -0 -0 -0 -1 0 1 1 2 2 2 2 3 7 9 5 3 4 8 10 9 6 5 5 6 6 6 6 7 8 8 8 8 7 10 12 10 9 8 9 9 10 11 11 12 11 10 11 11 12
0 0 0 -0 -0 0 0 -0 -0 0 1 1 1 1 1 1 3 6 4 3 3 5 6 10 10 8 5 8 8 6 7 6 6 7 7 8 8 8 11 10 10 11 10 11 10 10 11 11 11 11 11 10 12 13
-0 0 -1 -1 -0 -0 0 -0 0 1 1 1 2 1 3 4 7 5 2 2 3 6 9 9 11 12 5 6 6 7 6 9 6 9 9 8 9 12 10 11 12 12 13 13 12 13 13 14 14 13 13 13 13 13
-1 -0 -0 -0 -0 0 -0 0 1 1 1 1 3 7 9 6 2 1 5 7 8 7 7 9 8 11 7 7 8 8 7 9 11 9 7 10 10 11 11 11 12 12 13 13 14 15 15 16 16 15 15 15 14 14
-1 -0 -0 -0 0 -0 0 1 0 1 2 5 8 8 4 2 4 7 9 9 9 10 8 7 9 10 7 9 9 7 10 10 13 11 10 11 13 13 12 13 12 12 13 14 14 15 15 16 16 16 16 16 16 15
-0 0 0 0 0 1 1 1 1 3 5 5 5 3 4 5 7 10 11 9 10 11 9 9 9 8 8 5 8 8 10 10 14 9 11 14 15 13 13 13 13 13 14 15 15 16 16 17 17 17 17 17 17 16
0 1 1 0 1 1 1 1 1 2 3 3 5 7 7 9 12 15 14 12 12 10 10 9 10 9 8 6 8 9 12 13 8 12 15 16 14 14 14 14 14 14 15 16 17 17 17 18 19 19 19 19 18 19
1 1 1 1 2 1 1 2 2 2 4 7 8 12 12 14 12 12 11 10 9 8 9 8 8 9 8 9 9 12 10 10 13 17 18 16 14 14 14 14 15 17 17 18 19 19 20 20 21 21 21 20 21 21
2 1 2 2 2 2 2 1 1 3 6 8 9 14 13 12 11 10 8 9 9 8 8 8 8 8 9 10 9 11 12 17 17 18 17 15 14 15 15 15 16 17 18 20 21 22 23 22 22 23 22 22 22 22
3 3 4 2 2 2 1 2 5 6 8 11 13 13 11 12 13 13 12 11 10 11 9 8 9 11 11 11 13 16 16 18 18 16 15 15 15 15 16 16 18 19 19 20 21 20 22 23 23 23 23 23 23 23
3 4 2 2 2 1 2 6 6 9 11 13 17 15 16 16 16 15 14 14 12 12 10 10 11 13 12 15 17 17 19 17 16 16 16 16 16 17 17 16 17 18 20 21 21 21 22 22 22 22 23 23 22 22
4 2 2 1 2 5 6 7 9 11 15 14 17 17 17 18 18 16 15 14 13 11 11 14 13 16 18 17 19 18 16 16 15 16 16 17 17 18 17 17 18 17 19 19 20 21 22 22 22 22 22 22 22 22
2 2 2 3 4 7 9 9 9 14 14 15 15 15 16 16 15 16 15 14 13 13 14 16 19 21 21 19 18 18 16 16 16 16 16 18 18 18 19 18 18 19 19 19 19 20 20 21 20 20 20 20 21 21
2 3 3 3 4 8 11 11 9 13 16 16 16 17 17 19 17 17 16 15 15 16 19 21 21 20 19 17 17 16 15 14 15 16 16 16 17 18 19 18 18 19 19 19 19 20 19 20 20 20 20 20 21 22
3 4 4 5 7 9 11 12 13 14 14 17 15 16 18 18 19 19 18 16 18 20 21 19 19 17 17 16 16 15 16 15 16 15 16 17 17 17 18 18 18 18 19 20 20 20 20 20 20 20 20 21 20 20
5 4 7 7 9 10 12 12 13 13 14 15 16 16 21 22 22 20 17 19 19 19 18 18 18 18 18 18 17 17 16 16 16 16 17 16 17 17 18 18 18 19 19 19 19 19 19 19 19 19 20 20 20 20
6 7 10 10 13 15 16 10 14 14 18 17 16 19 21 21 19 16 21 19 19 17 17 18 17 17 18 17 17 18 18 17 18 18 18 17 17 17 17 17 17 18 18 18 17 18 18 19 19 19 19 19 20 20
9 14 16 17 15 18 15 17 13 15 16 18 19 21 21 20 18 20 23 21 19 17 17 17 17 19 19 19 20 20 20 18 18 18 18 17 18 17 16 16 16 16 15 16 16 17 17 18 18 18 18 19 19 19
14 18 18 23 20 21 23 25 22 20 24 22 21 21 22 19 24 25 24 22 21 21 22 20 19 19 20 21 20 19 20 18 18 19 18 17 17 17 17 16 16 16 15 16 17 17 18 18 18 18 18 19 19 20
21 23 22 23 24 22 23 25 27 25 25 26 23 22 23 25 28 28 22 23 23 22 23 22 21 20 20 20 20 19 19 18 18 19 19 18 18 18 18 18 17 17 15 15 16 16 16 16 17 17 18 18 19 19
26 25 20 18 18 20 24 24 21 23 26 26 25 28 28 31 30 25 21 22 20 21 21 20 19 19 19 20 19 19 19 19 18 19 18 18 17 17 17 18 18 17 15 15 15 15 15 15 15 16 16 16 16 17
24 22 25 27 26 23 28 29 29 28 27 23 25 31 29 28 26 22 20 22 21 20 20 21 20 20 20 21 21 19 19 20 20 20 19 18 19 19 20 20 20 19 19 17 15 15 15 15 15 16 16 16 17 17
27 25 24 30 28 28 28 29 27 23 22 26 30 30 27 23 23 22 21 20 20 20 22 23 25 25 25 25 26 25 23 21 20 23 22 21 21 19 21 22 21 21 21 18 16 15 16 17 17 17 18 17 18 17
27 24 28 31 32 30 29 27 26 26 24 24 22 22 23 24 23 23 21 21 22 23 25 25 27 25 25 24 25 25 27 27 24 20 21 21 21 21 23 23 23 22 23 20 18 17 16 17 17 18 18 19 19 19
24 27 29 29 30 27 27 29 32 30 30 29 30 28 26 24 22 22 24 25 27 28 26 27 28 30 26 27 25 26 25 26 30 27 25 24 24 23 23 25 25 25 23 21 21 20 20 21 21 20 19 20 23 21
30 32 30 31 29 27 27 30 32 30 29 27 29 32 29 27 27 23 26 26 26 26 28 27 26 25 28 29 31 30 31 27 27 27 26 25 24 25 26 25 26 24 22 22 22 23 21 21 21 21 22 23 24 24
31 33 32 28 28 27 26 26 26 27 28 28 30 32 30 27 26 25 26 26 25 24 26 27 28 28 29 28 27 29 31 28 31 25 27 27 29 27 26 26 24 23 22 23 23 23 23 23 23 24 25 25 26 26